Location: Newark
(5.8900°S, 42.6378°W)
Time: 20:56:29
(UTC+00:00)

Vanguard 1 Rocket - Pass Details

Date: 18 October 2019
Orbit: 651 x 4226 km, 34.3° (Epoch: 18 November)

Event Time Altitude Azimuth Distance (km) Brightness Sun altitude
Rises 17:54:26 0° 323° (NW) 8,016 12.5 40.7°
Reaches altitude 10° 18:02:35 10° 338° (NNW) 7,306 12.3 38.7°
Maximum altitude 18:20:46 23° 22° (NNE) 6,217 11.6 34.2°
Drops below altitude 10° 18:36:23 10° 67° (ENE) 6,401 11.3 30.3°
Sets 18:42:28 0° 81° (E) 6,884 11.3 28.8°
